Location: Beaurecueil
(43.5122°N, 5.5450°E)
Time: 01:17:49
(UTC+00:00)

ARGOS - Pass Details

Date: 18 September 2020
Orbit: 821 x 834 km, 98.4° (Epoch: 26 October)

Event Time Altitude Azimuth Distance (km) Brightness Sun altitude
Rises 19:12:56 0° 174° (S) 3,338 6.1 -17.0°
Reaches altitude 10° 19:15:18 10° 177° (S) 2,410 5.4 -17.4°
Maximum altitude 19:20:35 64° 258° (WSW) 912 3.6 -18.3°
Drops below altitude 10° 19:25:56 10° 340° (NNW) 2,433 6.1 -19.2°
Sets 19:28:20 0° 344° (NNW) 3,372 6.9 -19.6°
